Weather in Philadelphia

United States     39°57′04″N   75°09′50″W
temp.,
°C
wind,
m/s
gust,
m/s
humid.,
%
clouds,
%
prec.,
mm/h
press.,
hPa
HPBL,
m
16 may, sun
sun1623:00+15ssw263870 0.0 1024219
02:00+13ssw25486 0.0 1024134
05:00+11wsw2347100 0.0 102567
08:00+14ssw1240100 0.0 1026195
11:00+19ssw3439100 0.0 1026716
14:00+21sw4434100 0.0 10251724
17:00+20wnw3344100 0.0 10231149
20:00+17wnw2465100 0.1 1024129
17 may, mon
mon1723:00+13wnw25895 0.5 1025122
02:00+12n24852 0.5 102491
05:00+11nw22836 0.0 102562
08:00+14nnw126432 0.0 1026165
11:00+21ssw1141100 0.0 10261193
14:00+22sw333439 0.0 10252398
17:00+21sw444080 0.0 10251476
20:00+18ssw364788 0.0 1026313
18 may, tue
tue1823:00+15ssw2656100 0.0 1027189
02:00+14ssw256844 0.0 1026148
05:00+12sw24764 0.0 1026113
08:00+16w23650 0.0 1028263
11:00+22wsw33440 0.0 10271226
14:00+24w33352 0.0 10252336
17:00+25wnw343513 0.0 10242294
20:00+21w25535 0.0 1025194
19 may, wed
wed1923:00+18wsw2667100 0.0 1025178
02:00+16w23725 0.0 102686
05:00+15wnw24740 0.0 1026100
08:00+18nw236139 0.0 1027215
11:00+25wnw224311 0.0 10271024
14:00+28wnw32330 0.0 10262115
17:00+27nw32350 0.0 10251999
20:00+23wnw36560 0.0 1025218
20 may, thu
thu2023:00+20wnw22622 0.0 102649
02:00+19wnw23655 0.0 102767
05:00+18wnw2370100 0.0 102771
08:00+20nw2361100 0.0 1029175
11:00+25nw2246100 0.0 1029626
14:00+29w1235100 0.0 10281878
17:00+28w3236100 0.0 10271718
20:00+24ne1256100 0.0 1027119